Find Starlink 33732

NORAD ID: 63575 Int'l Des: 2025-076 Owner: SPXS Country: US Constellation: starlink operational
LEOCIRCULAR

Live Position

Loading 3D Globe...

About Starlink 33732

Description loading...

Upcoming Passes

Passes for default location (London). Set your location on the main map for personalized predictions.

Altitude History

Loading altitude history...

Two-Line Element Set

1 63575U 25076G 26126.32755333 .00019316 00000-0 70854-3 0 9991
2 63575 43.0012 356.3433 0002792 250.8364 109.2186 15.27627501 60642
Epoch: May 6, 2026 • Age: 14 hours

Current Status

Altitude 489.8 km
Velocity 7.62 km/s
Sub-Earth Point -29.77°S, 124°E
Launch Date Apr 14, 2025
Age 1 years
Type internet

Technical Details

Classification Payload
Mass 575.00 kg
Dry Mass 530.00 kg
Total Mass 575.00 kg
Length 0.30 m
Diameter 4.10 m
Span 29.00 m
Shape Box + pan
Manufacturer SPXS
Bus Type Starlink V2MO
Phase Status In Orbit
Owner/State SPXS/US

Most Searched